Simultaneous Nadir Overpasses (SNOs) Predictions

Prediction of SNOs between LANDSAT-8 and METOP-B Satellite Orbit:

Table of predicted SNOs for the next 14.0 days since TLE Epoch: 9/13/2016
Index Date (LANDSAT-8) Time (LANDSAT-8) Lat,Lon (LANDSAT-8) SZA (LANDSAT-8 ) Date (METOP-B) Time (METOP-B) Lat,Lon (METOP-B) SZA (METOP-B ) Distance(km) Time Diff (sec)
1 09/13/2016 18:45:18 81.10, -61.66 79.84 09/13/2016 18:45:16 81.09, -61.78 79.82 2.27 2
2 09/13/2016 19:34:44 -81.12, 106.31 100.10 09/13/2016 19:35:55 -81.12, 106.41 100.06 1.64 71
3 09/16/2016 13:30:09 -81.06,-163.47 99.16 09/16/2016 13:29:02 -81.06,-163.46 99.19 0.52 67
4 09/16/2016 14:19:34 81.09, 4.57 80.91 09/16/2016 14:19:40 81.10, 4.74 80.94 3.26 6
5 09/19/2016 09:04:23 -81.07, -96.90 98.03 09/19/2016 09:03:25 -81.07, -96.91 98.06 0.30 58
6 09/19/2016 09:53:48 81.09, 71.11 82.04 09/19/2016 09:54:03 81.10, 71.28 82.07 3.13 15
7 09/22/2016 04:38:38 -81.07, -30.38 96.91 09/22/2016 04:37:49 -81.07, -30.36 96.93 0.31 49
8 09/22/2016 05:28:03 81.10, 137.61 83.16 09/22/2016 05:28:28 81.09, 137.46 83.16 2.49 25
9 09/25/2016 00:12:53 -81.08, 36.10 95.79 09/25/2016 00:12:13 -81.08, 36.21 95.79 1.99 40




NCC Satellite Simultaneous Nadir Overpasses (SNOs) Prediction Service
